This is the latest recevied weather packets stored in our database for station/object KJ4EBE. If no packets are shown the sender has not sent any weather packets the latest 10 day(s).
| Time | Temp. | Humidity | Pressure | Rain* | Wind** | Luminosity | Snow |
|---|---|---|---|---|---|---|---|
| 1777814922 | 16.11° C | 73% | 1021.9 hPa | 0 mm | - | 114 W/m² | - |
| 1777814618 | 15.56° C | 74% | 1021.9 hPa | 0 mm | - | 49 W/m² | - |
| 1777814315 | 15.56° C | 74% | 1021.8 hPa | 0 mm | - | 46 W/m² | - |
| 1777814012 | 15.56° C | 73% | 1021.8 hPa | 0 mm | - | 44 W/m² | - |
| 1777813709 | 15.56° C | 72% | 1021.9 hPa | 0 mm | - | 42 W/m² | - |
| 1777813407 | 15.56° C | 71% | 1021.7 hPa | 0 mm | - | 41 W/m² | - |
| 1777813104 | 15° C | 71% | 1021.7 hPa | 0 mm | - | 39 W/m² | - |
| 1777812801 | 15° C | 72% | 1021.6 hPa | 0 mm | - | 37 W/m² | - |
| 1777812497 | 14.44° C | 73% | 1021.6 hPa | 0 mm | - | 36 W/m² | - |
| 1777812196 | 14.44° C | 74% | 1021.9 hPa | 0 mm | - | 34 W/m² | - |
| 1777811893 | 14.44° C | 74% | 1021.6 hPa | 0 mm | - | 32 W/m² | - |
| 1777811592 | 14.44° C | 73% | 1021.6 hPa | 0 mm | - | 30 W/m² | - |
| 1777811287 | 14.44° C | 72% | 1021.6 hPa | 0 mm | - | 28 W/m² | - |
| 1777810985 | 15° C | 71% | 1021.3 hPa | 0 mm | - | 25 W/m² | - |
| 1777810681 | 15° C | 71% | 1021.6 hPa | 0 mm | - | 22 W/m² | - |
| 1777810378 | 14.44° C | 71% | 1021.3 hPa | 0 mm | - | 19 W/m² | - |
| 1777810074 | 14.44° C | 71% | 1021.1 hPa | 0 mm | - | 16 W/m² | - |
| 1777809772 | 14.44° C | 72% | 1021.3 hPa | 0 mm | - | 13 W/m² | - |
| 1777809469 | 14.44° C | 73% | 1021.2 hPa | 0 mm | - | 10 W/m² | - |
| 1777809167 | 14.44° C | 72% | 1021 hPa | 0 mm | - | 6 W/m² | - |
| 1777808865 | 14.44° C | 72% | 1021.1 hPa | 0 mm | - | 4 W/m² | - |
| 1777808561 | 14.44° C | 72% | 1021 hPa | 0 mm | - | 2 W/m² | - |
| 1777808258 | 14.44° C | 71% | 1020.9 hPa | 0 mm | - | 1 W/m² | - |
| 1777807957 | 14.44° C | 72% | 1021.2 hPa | 0 mm | - | 0 W/m² | - |
| 1777807654 | 14.44° C | 72% | 1020.8 hPa | 0 mm | - | 0 W/m² | - |
* Rain latest hour (hover to see other rain measurements)
** Current wind speed in m/s (hover to see current wind gust speed)